Location: Unspecified
(0.0000°N, 0.0000°E)
Time: 18:48:06
(UTC+00:00)

CUTE 1.7 + AOD 2 - Visible Passes

Search period start: 25 September 2020 00:00
Search period end: 05 October 2020 00:00
Orbit: 593 x 612 km, 97.6° (Epoch: 24 September)

Date Brightness Start Highest point End Pass type
(mag) Time Alt. Az. Time Alt. Az. Time Alt. Az.
25 Sep ? 04:32:31 10° N 04:36:42 81° W 04:40:53 10° SSW visible
26 Sep ? 04:44:29 10° N 04:48:32 52° W 04:52:37 10° SSW visible
27 Sep ? 04:56:36 10° NNW 05:00:23 34° WNW 05:04:11 10° SW visible
28 Sep ? 03:34:47 10° ENE 03:36:43 13° ESE 03:38:39 10° SE visible
28 Sep ? 05:08:54 10° NNW 05:12:13 23° WNW 05:15:33 10° SW visible
29 Sep ? 03:45:32 10° NE 03:48:33 19° ESE 03:51:33 10° SSE visible
29 Sep ? 05:21:33 10° NW 05:24:04 16° WNW 05:26:36 10° WSW visible
30 Sep ? 03:56:47 10° NE 04:00:23 28° ESE 04:04:00 10° SSE visible
01 Oct ? 04:08:16 10° NNE 04:12:13 42° ESE 04:16:12 10° S visible
02 Oct ? 04:19:55 10° NNE 04:24:04 66° ESE 04:28:14 10° S visible
03 Oct ? 04:31:44 10° N 04:35:54 81° WNW 04:40:07 10° SSW visible
04 Oct ? 04:43:41 10° N 04:47:45 52° WNW 04:51:51 10° SSW visible
